Weather History for KBQK - April, 2012

Change the Weather History Date:

Sunday, April 29, 2012

  Actual Average Record
Temperature  
Mean Temperature 74 °F -  
Max Temperature 86 °F 81 °F 93 °F (1985)
Min Temperature 62 °F 57 °F 44 °F (1967)
Cooling Degree Days 9    
Growing Degree Days 24 (Base 50)    
Moisture  
Dew Point 67 °F    
Average Humidity 77    
Maximum Humidity 100    
Minimum Humidity 54    
Precipitation  
Precipitation 0.00 in - - ()
Sea Level Pressure  
Sea Level Pressure 30.13 in    
Wind  
Wind Speed 5 mph (SSE)    
Max Wind Speed 12 mph    
Max Gust Speed 17 mph    
Visibility 8 miles    
Events      
Averages and records for this station are not official NWS values.
T = Trace of Precipitation, MM = Missing Value Source: NWS Daily Summary

Daily Weather History Graph

Daily Weather History Graph

Search for Another Location

Airport or City:

Trip Planner

Search our weather history database for the weather conditions in past years. The results will help you decide how hot, cold, wet, or windy it might be!

Date:

Astronomy

Apr. 29, 2012 Rise Set
Actual Time 6:42 AM EDT 8:04 PM EDT
Civil Twilight 6:16 AM EDT 8:29 PM EDT
Nautical Twilight 5:46 AM EDT 9:00 PM EDT
Astronomical Twilight 5:14 AM EDT 9:32 PM EDT
Moon 1:22 PM EDT (4/29) 2:03 AM EDT (4/29)
Length of Visible Light 14h 12m
Length of Day
13h 21m
First Quarter, 53% of the Moon is Illuminated
Apr 29
First Quarter
May 5
Full
May 12
Last Quarter
May 20
New
May 28
First Quarter

Hourly Weather History & Observations

Time (EDT) Temp. Heat Index Dew Point Humidity Pressure Visibility Wind Dir Wind Speed Gust Speed Precip Events Conditions
12:15 AM 71.6 °F - 68.0 °F 88% 30.11 in 10.0 mi South 5.8 mph - N/A   Clear
12:35 AM 71.6 °F - 68.0 °F 88% 30.12 in 10.0 mi South 6.9 mph - N/A   Clear
12:55 AM 71.6 °F - 68.0 °F 88% 30.12 in 10.0 mi South 6.9 mph - N/A   Clear
1:15 AM 71.6 °F - 68.0 °F 88% 30.12 in 10.0 mi South 5.8 mph - N/A   Clear
1:35 AM 71.6 °F - 68.0 °F 88% 30.12 in 10.0 mi South 5.8 mph - N/A   Clear
1:55 AM 71.6 °F - 68.0 °F 88% 30.12 in 10.0 mi South 5.8 mph - N/A   Clear
2:15 AM 71.6 °F - 68.0 °F 88% 30.11 in 10.0 mi SSW 4.6 mph - N/A   Clear
2:35 AM 71.6 °F - 68.0 °F 88% 30.11 in 10.0 mi South 3.5 mph - N/A   Clear
2:55 AM 71.6 °F - 68.0 °F 88% 30.11 in 10.0 mi Calm Calm - N/A   Clear
3:15 AM 71.6 °F - 68.0 °F 88% 30.11 in 10.0 mi Calm Calm - N/A   Clear
3:35 AM 69.8 °F - 66.2 °F 88% 30.10 in 10.0 mi Calm Calm - N/A   Clear
3:55 AM 66.2 °F - 64.4 °F 94% 30.11 in 0.8 mi Calm Calm - N/A   Unknown
4:15 AM 66.2 °F - 64.4 °F 94% 30.11 in 1.0 mi Calm Calm - N/A   Unknown
4:35 AM 64.4 °F - 64.4 °F 100% 30.11 in 0.8 mi Calm Calm - N/A   Unknown
4:55 AM 64.4 °F - 64.4 °F 100% 30.11 in 0.2 mi Calm Calm - N/A   Mostly Cloudy
5:15 AM 64.4 °F - 62.6 °F 94% 30.11 in 0.2 mi Calm Calm - N/A   Overcast
5:35 AM 64.4 °F - 62.6 °F 94% 30.12 in 0.5 mi Calm Calm - N/A   Mostly Cloudy
5:55 AM 64.4 °F - 62.6 °F 94% 30.13 in 0.5 mi Calm Calm - N/A   Mostly Cloudy
6:15 AM 64.4 °F - 62.6 °F 94% 30.13 in 0.2 mi Calm Calm - N/A   Overcast
6:35 AM 62.6 °F - 62.6 °F 100% 30.13 in 0.2 mi Calm Calm - N/A   Overcast
6:55 AM 62.6 °F - 60.8 °F 94% 30.14 in 0.2 mi Calm Calm - N/A   Overcast
7:15 AM 62.6 °F - 60.8 °F 94% 30.14 in 0.2 mi Calm Calm - N/A   Overcast
7:35 AM 64.4 °F - 62.6 °F 94% 30.15 in 5.0 mi Calm Calm - N/A   Scattered Clouds
7:55 AM 68.0 °F - 66.2 °F 94% 30.15 in 5.0 mi Calm Calm - N/A   Clear
8:15 AM 71.6 °F - 69.8 °F 94% 30.16 in 7.0 mi Calm Calm - N/A   Clear
8:35 AM 73.4 °F - 71.6 °F 94% 30.16 in 10.0 mi South 3.5 mph - N/A   Scattered Clouds
9:15 AM 77.0 °F - 69.8 °F 78% 30.16 in 10.0 mi WSW 6.9 mph - N/A   Scattered Clouds
9:35 AM 78.8 °F - 69.8 °F 74% 30.16 in 10.0 mi SSW 5.8 mph - N/A   Scattered Clouds
9:55 AM 78.8 °F - 68.0 °F 69% 30.15 in 10.0 mi WSW 6.9 mph - N/A   Clear
10:15 AM 80.6 °F 83.2 °F 68.0 °F 65% 30.15 in 10.0 mi South 4.6 mph - N/A   Clear
10:35 AM 80.6 °F 83.2 °F 68.0 °F 65% 30.15 in 10.0 mi SW 4.6 mph - N/A   Clear
10:55 AM 80.6 °F 83.2 °F 68.0 °F 65% 30.15 in 10.0 mi SW 3.5 mph - N/A   Scattered Clouds
11:15 AM 80.6 °F 83.2 °F 68.0 °F 65% 30.15 in 10.0 mi Calm Calm - N/A   Scattered Clouds
11:35 AM 82.4 °F 85.4 °F 68.0 °F 62% 30.15 in 10.0 mi Calm Calm - N/A   Clear
11:55 AM 84.2 °F 86.6 °F 66.2 °F 55% 30.15 in 10.0 mi SE 4.6 mph - N/A   Clear
12:15 PM 84.2 °F 87.3 °F 68.0 °F 58% 30.15 in 10.0 mi East 3.5 mph - N/A   Clear
12:35 PM 84.2 °F 88.4 °F 69.8 °F 62% 30.14 in 10.0 mi South 5.8 mph - N/A   Scattered Clouds
12:55 PM 84.2 °F 88.4 °F 69.8 °F 62% 30.13 in 10.0 mi South 5.8 mph - N/A   Clear
1:15 PM 84.2 °F 88.4 °F 69.8 °F 62% 30.13 in 10.0 mi ESE 6.9 mph - N/A   Clear
1:35 PM 84.2 °F 87.3 °F 68.0 °F 58% 30.12 in 10.0 mi SSE 5.8 mph - N/A   Clear
1:55 PM 86.0 °F 89.4 °F 68.0 °F 55% 30.12 in 10.0 mi Calm Calm - N/A   Clear
2:15 PM 86.0 °F 90.4 °F 69.8 °F 58% 30.11 in 10.0 mi SSE 11.5 mph - N/A   Clear
2:35 PM 84.2 °F 87.3 °F 68.0 °F 58% 30.12 in 10.0 mi SSE 11.5 mph 17.3 mph N/A   Clear
2:55 PM 82.4 °F 85.4 °F 68.0 °F 62% 30.12 in 10.0 mi ESE 9.2 mph 16.1 mph N/A   Clear
3:15 PM 82.4 °F 85.4 °F 68.0 °F 62% 30.11 in 10.0 mi SSE 10.4 mph - N/A   Clear
3:35 PM 82.4 °F 85.4 °F 68.0 °F 62% 30.11 in 10.0 mi SE 11.5 mph - N/A   Clear
3:55 PM 82.4 °F 85.4 °F 68.0 °F 62% 30.10 in 10.0 mi SE 8.1 mph - N/A   Clear
4:15 PM 80.6 °F 83.2 °F 68.0 °F 65% 30.10 in 10.0 mi SE 10.4 mph - N/A   Clear
4:35 PM 82.4 °F 85.4 °F 68.0 °F 62% 30.10 in 10.0 mi SE 10.4 mph - N/A   Clear
4:55 PM 80.6 °F 82.7 °F 66.2 °F 61% 30.10 in 10.0 mi ESE 10.4 mph - N/A   Clear
5:15 PM 82.4 °F 83.9 °F 64.4 °F 54% 30.10 in 10.0 mi ESE 10.4 mph - N/A   Clear
5:35 PM 80.6 °F 82.3 °F 64.4 °F 58% 30.10 in 10.0 mi SE 10.4 mph - N/A   Clear
5:55 PM 80.6 °F 82.3 °F 64.4 °F 58% 30.11 in 10.0 mi SE 8.1 mph - N/A   Clear
6:15 PM 80.6 °F 82.3 °F 64.4 °F 58% 30.11 in 10.0 mi SE 8.1 mph - N/A   Clear
6:35 PM 80.6 °F 81.8 °F 62.6 °F 54% 30.11 in 10.0 mi SE 8.1 mph - N/A   Clear
6:55 PM 78.8 °F - 60.8 °F 54% 30.11 in 10.0 mi SE 9.2 mph - N/A   Clear
7:15 PM 78.8 °F - 62.6 °F 57% 30.11 in 10.0 mi SE 10.4 mph - N/A   Clear
7:35 PM 77.0 °F - 64.4 °F 65% 30.11 in 10.0 mi SE 5.8 mph - N/A   Clear
7:55 PM 75.2 °F - 64.4 °F 69% 30.12 in 10.0 mi SE 5.8 mph - N/A   Clear
8:15 PM 73.4 °F - 66.2 °F 78% 30.12 in 10.0 mi SE 6.9 mph - N/A   Clear
8:35 PM 73.4 °F - 68.0 °F 83% 30.12 in 10.0 mi SE 6.9 mph - N/A   Clear
8:55 PM 73.4 °F - 68.0 °F 83% 30.13 in 10.0 mi SE 6.9 mph - N/A   Clear
9:15 PM 73.4 °F - 68.0 °F 83% 30.13 in 10.0 mi SE 5.8 mph - N/A   Clear
9:35 PM 73.4 °F - 68.0 °F 83% 30.13 in 10.0 mi SE 6.9 mph - N/A   Clear
9:55 PM 73.4 °F - 68.0 °F 83% 30.14 in 10.0 mi SE 5.8 mph - N/A   Clear
10:15 PM 73.4 °F - 68.0 °F 83% 30.15 in 10.0 mi SSE 5.8 mph - N/A   Clear
10:35 PM 71.6 °F - 68.0 °F 88% 30.15 in 10.0 mi SE 4.6 mph - N/A   Clear
10:55 PM 71.6 °F - 68.0 °F 88% 30.15 in 10.0 mi SSE 4.6 mph - N/A   Clear
11:15 PM 71.6 °F - 68.0 °F 88% 30.15 in 10.0 mi SSE 5.8 mph - N/A   Clear
11:35 PM 71.6 °F - 68.0 °F 88% 30.15 in 10.0 mi SSE 4.6 mph - N/A   Clear
11:55 PM 71.6 °F - 68.0 °F 88% 30.15 in 10.0 mi SSE 4.6 mph - N/A   Clear